This is the latest recevied weather packets stored in our database for station/object NE8U. If no packets are shown the sender has not sent any weather packets the latest 10 day(s).
| Time | Temp. | Humidity | Pressure | Rain* | Wind** | Luminosity | Snow |
|---|---|---|---|---|---|---|---|
| 1777925972 | 27.78° C | 20% | 1014.5 hPa | 0 mm | - | 342 W/m² | - |
| 1777925670 | 27.78° C | 21% | 1014.6 hPa | 0 mm | - | 342 W/m² | - |
| 1777925367 | 27.78° C | 20% | 1014.6 hPa | 0 mm | - | 345 W/m² | - |
| 1777925064 | 27.78° C | 20% | 1014.8 hPa | 0 mm | - | 304 W/m² | - |
| 1777924761 | 27.22° C | 19% | 1014.8 hPa | 0 mm | - | 237 W/m² | - |
| 1777924456 | 27.22° C | 20% | 1014.8 hPa | 0 mm | - | 243 W/m² | - |
| 1777924153 | 27.22° C | 19% | 1014.6 hPa | 0 mm | - | 286 W/m² | - |
| 1777923849 | 27.22° C | 19% | 1014.6 hPa | 0 mm | - | 305 W/m² | - |
| 1777923545 | 27.22° C | 20% | 1014.9 hPa | 0 mm | - | 370 W/m² | - |
| 1777923242 | 27.22° C | 22% | 1014.8 hPa | 0 mm | - | 369 W/m² | - |
| 1777922941 | 27.22° C | 21% | 1014.2 hPa | 0 mm | - | 360 W/m² | - |
| 1777922638 | 26.67° C | 21% | 1014.4 hPa | 0 mm | - | 298 W/m² | - |
| 1777922336 | 27.22° C | 21% | 1014.6 hPa | 0 mm | - | 375 W/m² | - |
| 1777922034 | 27.22° C | 21% | 1014.6 hPa | 0 mm | - | 401 W/m² | - |
| 1777921729 | 27.22° C | 21% | 1014.5 hPa | 0 mm | - | 458 W/m² | - |
| 1777921425 | 26.67° C | 20% | 1014.6 hPa | 0 mm | - | 462 W/m² | - |
| 1777921122 | 27.22° C | 20% | 1014.6 hPa | 0 mm | - | 456 W/m² | - |
| 1777920819 | 27.22° C | 21% | 1014.5 hPa | 0 mm | - | 512 W/m² | - |
| 1777920515 | 26.67° C | 22% | 1014.9 hPa | 0 mm | - | 494 W/m² | - |
| 1777920211 | 26.67° C | 22% | 1014.9 hPa | 0 mm | - | 469 W/m² | - |
| 1777919907 | 26.67° C | 22% | 1015.2 hPa | 0 mm | - | 381 W/m² | - |
| 1777919605 | 26.67° C | 22% | 1015 hPa | 0 mm | - | 432 W/m² | - |
| 1777919302 | 26.67° C | 25% | 1015.2 hPa | 0 mm | - | 419 W/m² | - |
| 1777919000 | 26.67° C | 25% | 1015.5 hPa | 0 mm | - | 494 W/m² | - |
| 1777918696 | 26.67° C | 25% | 1015.4 hPa | 0 mm | - | 409 W/m² | - |
* Rain latest hour (hover to see other rain measurements)
** Current wind speed in m/s (hover to see current wind gust speed)